Dewpoint
27 23 23 27 29 28 26 24 23 23 25 33 33 33 34 38 38 37 37 36 33 31 32 33 33 33 33 34 30 29 28 29 29 28 27 26 27 26 28 29 31 30 30 31
21 23 25 28 29 28 28 26 25 25 25 32 32 32 34 38 38 38 37 36 33 32 32 33 33 33 33 33 30 28 27 27 27 27 27 27 26 27 28 27 29 31 32 32
17 19 24 26 24 25 24 24 23 23 32 33 30 28 30 34 37 37 38 37 34 32 32 32 32 33 33 30 29 27 27 27 27 27 27 27 27 27 26 26 27 30 32 31
21 22 20 20 20 22 20 22 24 27 31 27 29 27 25 26 32 35 36 36 34 32 32 32 32 32 31 29 29 28 27 26 26 26 26 26 26 25 27 26 26 30 30 30
19 22 22 22 21 23 22 29 27 27 26 25 23 22 22 22 21 30 35 36 34 32 32 32 32 31 29 28 28 28 27 26 26 26 26 26 26 26 26 26 26 27 28 27
17 18 18 17 25 26 28 25 25 25 23 18 20 20 19 21 24 29 35 35 34 32 33 32 31 28 28 28 28 28 27 27 27 26 25 25 24 24 24 24 25 26 26 27
16 16 17 21 21 23 24 19 18 14 16 15 22 18 18 24 35 35 36 34 33 34 33 30 29 28 28 28 28 28 28 28 27 26 25 25 24 23 23 24 23 22 23 24
11 13 18 22 20 18 20 19 20 15 18 18 20 16 16 37 37 36 36 35 34 34 32 30 28 28 28 28 29 28 28 26 26 26 25 23 22 24 24 22 21 22 23 24
19 17 20 20 21 19 23 20 24 22 25 20 19 18 23 37 36 35 35 35 34 32 32 30 29 30 29 29 28 28 26 26 26 26 23 21 22 22 21 21 21 22 23 24
25 18 22 19 20 19 18 20 17 21 13 14 18 17 17 26 36 35 35 33 33 32 32 31 30 30 29 27 28 27 26 25 26 24 22 22 22 22 21 21 21 21 21 23
26 20 18 22 20 19 20 19 22 20 24 16 16 17 31 30 36 35 35 33 32 32 32 30 29 28 27 27 26 25 25 27 24 23 22 22 22 21 21 21 21 21 22 23
25 28 21 21 25 23 22 22 23 21 18 24 23 20 36 36 37 36 34 33 33 32 31 28 27 26 27 28 26 25 27 25 25 24 23 23 22 21 20 21 21 22 21 23
24 26 16 14 23 26 23 24 23 25 25 19 19 21 37 37 36 35 34 33 33 31 29 28 27 27 28 29 27 23 24 25 25 23 21 21 21 20 20 20 21 21 22 22
35 31 22 18 25 27 24 24 23 23 22 21 23 26 33 37 35 35 33 32 31 30 29 29 28 28 30 28 24 23 25 25 23 22 21 21 20 21 21 20 21 22 22 23
33 29 30 30 27 25 24 24 24 23 24 22 25 30 34 37 35 35 33 32 31 30 29 29 28 29 29 25 22 23 25 24 23 22 22 21 22 22 21 21 22 22 23 25
33 26 29 25 25 24 24 25 26 26 27 29 29 30 36 36 35 34 33 32 31 30 30 28 28 29 28 24 22 21 22 24 23 22 23 22 23 22 22 22 23 22 23 23
30 29 26 21 29 24 23 26 26 28 30 28 25 30 36 35 35 34 34 33 32 32 29 27 30 31 31 22 21 22 22 23 22 22 23 23 23 22 21 21 21 20 21 22
30 30 29 23 23 16 26 31 31 30 31 31 31 32 33 34 34 35 35 34 33 31 29 32 33 33 26 21 23 22 21 22 22 21 22 23 23 20 19 18 17 18 19 19
31 32 30 24 23 25 32 34 32 28 30 34 31 32 33 34 33 34 35 34 32 32 35 35 33 29 23 22 22 21 22 22 21 21 23 22 20 17 16 15 15 15 17 17
35 35 30 26 23 23 29 36 36 31 27 35 33 32 32 33 29 32 33 34 35 37 35 33 27 22 22 22 21 21 21 21 21 22 22 19 17 15 14 12 12 13 14 15
30 32 28 27 24 30 37 38 34 18 21 35 33 33 32 32 34 33 36 37 37 35 34 27 22 21 21 22 22 22 22 21 23 24 23 17 9 9 9 10 11 12 13 14
28 28 28 30 27 24 39 36 30 33 38 37 36 37 35 34 35 36 37 36 34 31 27 23 22 22 22 22 22 22 22 25 23 22 20 15 12 9 9 10 10 12 13 14
32 32 33 30 31 39 41 37 39 38 37 38 37 37 35 35 35 37 37 34 32 28 24 23 21 21 22 22 22 21 23 23 22 19 20 17 16 14 14 12 11 11 12 14
37 38 37 36 38 36 36 39 40 39 40 38 37 37 35 35 36 35 32 30 30 29 25 22 22 22 22 22 21 22 24 23 22 21 19 16 15 17 18 19 16 12 13 15
37 37 36 37 36 36 35 37 38 39 37 37 37 37 35 35 34 34 32 31 33 30 24 23 23 22 22 21 21 21 21 24 22 20 19 18 20 19 19 20 20 18 15 19
35 34 32 31 38 38 36 36 38 38 36 36 35 33 33 34 35 35 35 34 30 25 25 24 23 22 18 20 20 21 22 21 16 17 18 19 20 19 19 19 19 22 20 21
Lifted_Index
3 2 2 2 2 2 2 2 2 2 3 3 3 3 3 3 2 2 2 3 3 4 5 7 8 9 9 9 9 9 9 11 13 14 15 15 15 16 17 18 18 19 19 19
3 3 2 3 2 2 2 2 2 2 2 3 3 3 3 2 2 2 2 2 3 3 4 6 7 8 9 9 8 8 9 11 13 14 15 15 16 16 17 18 18 18 19 19
3 3 3 3 3 3 3 2 2 2 3 3 3 3 3 2 2 2 2 2 2 2 3 4 6 7 8 8 8 8 9 11 13 14 14 15 15 16 17 18 18 18 19 19
4 4 4 4 3 3 3 3 3 3 3 2 2 2 3 3 3 3 3 2 2 2 3 4 5 6 7 8 8 8 9 11 13 14 14 14 15 16 17 18 18 19 19 19
4 4 4 4 4 3 3 3 2 2 2 2 2 2 3 3 3 3 3 3 3 3 3 4 5 6 7 8 8 8 9 11 13 14 14 14 15 17 18 19 19 19 20 20
4 4 4 4 3 3 3 2 2 2 2 2 2 2 3 3 3 3 3 3 3 3 3 4 5 6 7 8 8 8 9 11 12 14 14 15 16 18 19 19 19 20 20 21
4 4 4 3 3 3 2 2 1 1 1 1 2 2 3 3 3 3 3 3 2 2 3 3 4 6 7 7 7 8 9 11 12 14 15 16 18 19 19 19 20 20 21 21
3 3 3 3 3 2 2 1 1 1 1 1 2 2 3 3 4 3 3 2 2 2 2 3 4 5 6 6 7 8 10 11 13 14 16 17 19 19 20 20 20 21 21 21
3 2 2 2 2 2 2 2 2 1 1 1 2 3 3 3 3 3 3 2 1 1 2 3 4 5 5 6 8 9 10 12 14 15 17 18 19 20 20 20 21 21 20 20
3 2 2 2 2 2 2 2 2 1 1 1 2 2 3 3 3 2 2 1 1 0 1 2 3 5 6 7 8 10 11 12 14 16 18 19 20 20 20 20 20 20 20 19
3 2 2 2 2 2 2 2 1 1 1 1 1 2 3 3 2 1 1 1 0 0 1 2 3 5 6 8 9 10 11 13 14 17 18 19 20 20 20 20 20 20 19 19
3 2 2 2 2 2 2 2 2 2 2 2 2 2 2 2 2 1 1 1 0 0 1 2 3 5 6 7 9 10 11 13 15 17 19 20 20 20 20 20 20 19 18 18
3 3 2 2 2 2 2 2 2 2 2 2 2 2 3 2 2 1 1 1 1 1 1 2 3 4 6 7 9 10 12 14 16 18 19 19 19 19 19 19 19 18 18 17
3 3 3 3 3 3 3 3 3 3 2 2 3 3 3 3 2 2 2 1 1 1 2 2 3 5 7 8 9 11 12 14 17 18 19 19 19 19 19 19 18 18 17 17
4 4 4 4 4 4 5 5 4 4 4 3 4 4 4 4 3 3 2 2 1 1 2 3 4 6 7 8 10 11 13 15 17 19 19 19 19 19 19 18 18 17 17 17
5 5 5 5 5 5 6 6 6 5 5 4 4 4 4 4 4 4 3 2 2 2 3 4 5 6 7 9 10 12 13 16 18 19 19 19 19 19 19 18 17 17 17 17
5 5 5 5 5 5 6 6 6 5 5 5 5 5 5 5 4 4 4 3 3 3 4 4 5 6 8 10 11 12 14 17 18 19 19 19 19 19 18 18 17 17 17 17
5 5 5 4 4 4 5 5 5 5 4 5 5 5 5 5 5 4 4 3 3 4 4 5 6 7 9 11 12 13 15 17 18 19 18 18 18 18 18 17 17 17 17 17
5 5 5 4 3 3 4 4 4 4 4 5 5 5 5 5 5 4 4 3 3 4 5 6 7 8 9 11 13 14 16 18 18 18 18 18 18 18 17 17 17 17 17 17
5 5 4 3 3 3 3 4 4 4 5 5 5 5 5 5 4 4 3 4 4 5 5 6 7 9 10 12 14 15 16 18 18 18 18 18 18 18 17 17 17 17 17 17
4 4 4 3 3 3 3 3 4 4 5 5 5 4 4 4 4 3 3 4 4 5 6 7 8 9 11 13 14 16 17 18 18 18 18 18 18 17 17 17 17 17 17 17
4 4 3 3 3 3 3 3 4 4 4 4 4 4 4 4 3 3 4 4 5 5 7 8 9 10 12 14 15 16 17 17 17 17 17 17 17 17 17 17 16 16 16 16
3 3 3 3 3 3 3 3 4 4 4 4 4 4 4 4 4 4 5 5 5 6 7 8 10 11 13 15 16 17 17 17 17 16 16 16 16 16 16 16 16 15 15 15
3 3 3 3 3 3 3 3 4 4 4 4 4 4 4 4 5 5 5 6 6 7 8 10 11 12 13 15 16 17 17 17 16 16 15 16 16 16 16 16 15 15 15 15
3 3 3 3 3 3 3 3 4 5 5 5 5 5 5 5 5 6 6 6 7 8 10 11 12 13 13 15 16 17 17 16 16 15 15 15 15 15 15 15 15 15 15 15
3 3 3 3 3 3 3 3 4 5 5 5 5 5 5 5 6 6 6 7 8 9 10 11 12 13 13 15 16 17 17 16 16 15 15 15 15 15 15 15 15 16 16 16